Time,TemperatureF,DewpointF,PressureIn,WindDirection,WindDirectionDegrees,WindSpeedMPH,WindSpeedGustMPH,Humidity,HourlyPrecipIn,Conditions,Clouds,dailyrainin,SoftwareType,DateUTC
2013-07-03 00:00:00,65.3,26.6,25.16,ESE,120,4.0,4.0,23,0.00,,---,0.00,VWS V14.01,2013-07-03 05:00:00,
2013-07-03 00:03:00,65.3,26.6,25.16,ESE,117,4.0,4.0,23,0.00,,---,0.00,VWS V14.01,2013-07-03 05:03:00,
2013-07-03 00:04:00,65.3,26.6,25.16,ESE,117,4.0,4.0,23,0.00,,---,0.00,VWS V14.01,2013-07-03 05:04:00,
2013-07-03 00:12:00,65.3,26.6,25.16,ESE,114,2.2,2.2,23,0.00,,---,0.00,VWS V14.01,2013-07-03 05:12:00,
2013-07-03 00:17:00,64.9,26.3,25.16,ESE,114,0.0,0.0,23,0.00,,---,0.00,VWS V14.01,2013-07-03 05:17:00,
2013-07-03 00:19:00,64.8,26.1,25.16,ESE,114,0.0,0.0,23,0.00,,---,0.00,VWS V14.01,2013-07-03 05:19:00,
2013-07-03 00:23:00,64.8,26.1,25.16,ESE,114,0.0,0.0,23,0.00,,---,0.00,VWS V14.01,2013-07-03 05:23:00,
2013-07-03 00:24:00,64.6,26.0,25.16,ESE,114,0.0,0.0,23,0.00,,---,0.00,VWS V14.01,2013-07-03 05:24:00,
2013-07-03 00:29:00,64.6,26.0,25.16,ESE,114,0.0,0.0,23,0.00,,---,0.00,VWS V14.01,2013-07-03 05:29:00,
2013-07-03 00:30:00,64.6,26.0,25.16,ESE,114,0.0,0.0,23,0.00,,---,0.00,VWS V14.01,2013-07-03 05:30:00,
2013-07-03 00:34:00,64.8,26.1,25.16,ESE,114,0.0,0.0,23,0.00,,---,0.00,VWS V14.01,2013-07-03 05:34:00,
2013-07-03 00:35:00,64.8,26.1,25.16,ESE,114,0.0,0.0,23,0.00,,---,0.00,VWS V14.01,2013-07-03 05:35:00,
2013-07-03 00:40:00,64.9,26.3,25.16,ESE,114,0.0,0.0,23,0.00,,---,0.00,VWS V14.01,2013-07-03 05:40:00,
2013-07-03 00:45:00,64.8,26.1,25.16,ESE,114,0.0,0.0,23,0.00,,---,0.00,VWS V14.01,2013-07-03 05:45:00,
2013-07-03 00:46:00,64.8,26.1,25.16,ESE,114,0.0,0.0,23,0.00,,---,0.00,VWS V14.01,2013-07-03 05:46:00,
2013-07-03 00:51:00,64.8,26.1,25.16,ESE,114,0.0,0.0,23,0.00,,---,0.00,VWS V14.01,2013-07-03 05:51:00,
2013-07-03 00:52:00,64.8,26.1,25.16,East,101,0.0,0.0,23,0.00,,---,0.00,VWS V14.01,2013-07-03 05:52:00,
2013-07-03 00:53:00,64.8,26.1,25.16,East,101,0.0,0.0,23,0.00,,---,0.00,VWS V14.01,2013-07-03 05:53:00,
2013-07-03 00:54:00,64.8,26.1,25.16,East,101,0.0,0.0,23,0.00,,---,0.00,VWS V14.01,2013-07-03 05:54:00,
2013-07-03 00:57:00,64.8,26.1,25.16,East,101,0.0,0.0,23,0.00,,---,0.00,VWS V14.01,2013-07-03 05:57:00,
2013-07-03 00:58:00,64.8,26.1,25.16,East,101,0.0,0.0,23,0.00,,---,0.00,VWS V14.01,2013-07-03 05:58:00,
2013-07-03 01:02:00,64.6,26.0,25.16,East,101,0.0,0.0,23,0.00,,---,0.00,VWS V14.01,2013-07-03 06:02:00,
2013-07-03 01:03:00,64.6,26.0,25.16,East,101,0.0,0.0,23,0.00,,---,0.00,VWS V14.01,2013-07-03 06:03:00,
2013-07-03 01:04:00,64.6,26.0,25.16,East,101,0.0,0.0,23,0.00,,---,0.00,VWS V14.01,2013-07-03 06:04:00,
2013-07-03 01:08:00,64.4,25.8,25.16,East,101,0.0,0.0,23,0.00,,---,0.00,VWS V14.01,2013-07-03 06:08:00,
2013-07-03 01:09:00,64.4,25.8,25.16,East,101,0.0,0.0,23,0.00,,---,0.00,VWS V14.01,2013-07-03 06:09:00,
2013-07-03 01:14:00,64.4,25.8,25.16,East,101,0.0,0.0,23,0.00,,---,0.00,VWS V14.01,2013-07-03 06:14:00,
2013-07-03 01:15:00,64.4,25.8,25.16,East,101,0.0,0.0,23,0.00,,---,0.00,VWS V14.01,2013-07-03 06:15:00,
2013-07-03 01:16:00,64.4,25.8,25.16,East,101,0.0,0.0,23,0.00,,---,0.00,VWS V14.01,2013-07-03 06:16:00,
2013-07-03 01:18:00,64.6,26.0,25.16,East,101,0.0,0.0,23,0.00,,---,0.00,VWS V14.01,2013-07-03 06:18:00,
2013-07-03 01:20:00,64.6,26.0,25.13,East,101,0.0,0.0,23,0.00,,---,0.00,VWS V14.01,2013-07-03 06:20:00,
2013-07-03 01:22:00,64.6,26.0,25.13,East,101,0.0,0.0,23,0.00,,---,0.00,VWS V14.01,2013-07-03 06:22:00,
2013-07-03 01:23:00,64.6,26.0,25.13,East,101,0.0,0.0,23,0.00,,---,0.00,VWS V14.01,2013-07-03 06:23:00,
2013-07-03 01:25:00,64.8,26.1,25.13,East,101,0.0,0.0,23,0.00,,---,0.00,VWS V14.01,2013-07-03 06:25:00,
2013-07-03 01:26:00,64.6,26.0,25.13,East,101,0.0,0.0,23,0.00,,---,0.00,VWS V14.01,2013-07-03 06:26:00,
2013-07-03 01:29:00,64.6,26.0,25.13,East,101,0.0,0.0,23,0.00,,---,0.00,VWS V14.01,2013-07-03 06:29:00,
2013-07-03 01:30:00,64.6,26.0,25.13,East,101,0.0,0.0,23,0.00,,---,0.00,VWS V14.01,2013-07-03 06:30:00,
2013-07-03 01:32:00,64.6,26.0,25.13,East,101,0.0,0.0,23,0.00,,---,0.00,VWS V14.01,2013-07-03 06:32:00,
2013-07-03 01:34:00,64.6,26.0,25.13,East,101,0.0,0.0,23,0.00,,---,0.00,VWS V14.01,2013-07-03 06:34:00,
2013-07-03 01:37:00,64.4,25.8,25.13,East,101,0.0,0.0,23,0.00,,---,0.00,VWS V14.01,2013-07-03 06:37:00,
2013-07-03 01:39:00,64.4,25.8,25.13,East,101,0.0,0.0,23,0.00,,---,0.00,VWS V14.01,2013-07-03 06:39:00,
2013-07-03 01:42:00,64.2,26.7,25.13,East,101,0.0,0.0,24,0.00,,---,0.00,VWS V14.01,2013-07-03 06:42:00,
2013-07-03 01:43:00,64.2,26.7,25.13,East,101,0.0,0.0,24,0.00,,---,0.00,VWS V14.01,2013-07-03 06:43:00,
2013-07-03 01:44:00,64.2,26.7,25.13,East,101,0.0,0.0,24,0.00,,---,0.00,VWS V14.01,2013-07-03 06:44:00,
2013-07-03 01:48:00,64.0,26.5,25.13,East,101,0.0,0.0,24,0.00,,---,0.00,VWS V14.01,2013-07-03 06:48:00,
2013-07-03 01:49:00,63.9,26.4,25.13,East,101,0.0,0.0,24,0.00,,---,0.00,VWS V14.01,2013-07-03 06:49:00,
2013-07-03 01:50:00,63.9,26.4,25.13,East,101,0.0,0.0,24,0.00,,---,0.00,VWS V14.01,2013-07-03 06:50:00,
2013-07-03 01:53:00,63.7,26.2,25.13,East,101,0.0,0.0,24,0.00,,---,0.00,VWS V14.01,2013-07-03 06:53:00,
2013-07-03 01:54:00,63.7,26.2,25.13,East,101,0.0,0.0,24,0.00,,---,0.00,VWS V14.01,2013-07-03 06:54:00,
2013-07-03 01:55:00,63.5,26.1,25.13,East,101,0.0,0.0,24,0.00,,---,0.00,VWS V14.01,2013-07-03 06:55:00,
2013-07-03 01:58:00,63.3,25.9,25.13,East,101,0.0,0.0,24,0.00,,---,0.00,VWS V14.01,2013-07-03 06:58:00,
2013-07-03 01:59:00,63.3,25.9,25.13,East,101,0.0,0.0,24,0.00,,---,0.00,VWS V14.01,2013-07-03 06:59:00,
2013-07-03 02:01:00,63.3,25.9,25.13,East,101,0.0,0.0,24,0.00,,---,0.00,VWS V14.01,2013-07-03 07:01:00,
2013-07-03 02:02:00,63.1,25.8,25.13,East,101,0.0,0.0,24,0.00,,---,0.00,VWS V14.01,2013-07-03 07:02:00,
2013-07-03 02:04:00,63.3,25.9,25.13,East,101,0.0,0.0,24,0.00,,---,0.00,VWS V14.01,2013-07-03 07:04:00,
2013-07-03 02:06:00,63.3,25.9,25.13,East,101,0.0,0.0,24,0.00,,---,0.00,VWS V14.01,2013-07-03 07:06:00,
2013-07-03 02:07:00,63.3,25.9,25.13,East,101,0.0,0.0,24,0.00,,---,0.00,VWS V14.01,2013-07-03 07:07:00,
2013-07-03 02:09:00,63.3,25.9,25.13,East,101,0.0,0.0,24,0.00,,---,0.00,VWS V14.01,2013-07-03 07:09:00,
2013-07-03 02:11:00,63.5,26.1,25.13,East,101,0.0,0.0,24,0.00,,---,0.00,VWS V14.01,2013-07-03 07:11:00,
2013-07-03 02:13:00,63.5,26.1,25.13,East,101,0.0,0.0,24,0.00,,---,0.00,VWS V14.01,2013-07-03 07:13:00,
2013-07-03 02:14:00,63.5,26.1,25.13,East,101,0.0,0.0,24,0.00,,---,0.00,VWS V14.01,2013-07-03 07:14:00,
2013-07-03 02:16:00,63.3,25.9,25.13,East,101,0.0,0.0,24,0.00,,---,0.00,VWS V14.01,2013-07-03 07:16:00,
2013-07-03 02:19:00,63.1,25.8,25.13,East,101,0.0,0.0,24,0.00,,---,0.00,VWS V14.01,2013-07-03 07:19:00,
2013-07-03 02:21:00,63.0,25.6,25.13,East,101,0.0,0.0,24,0.00,,---,0.00,VWS V14.01,2013-07-03 07:21:00,
2013-07-03 02:22:00,63.0,25.6,25.13,East,101,0.0,0.0,24,0.00,,---,0.00,VWS V14.01,2013-07-03 07:22:00,
2013-07-03 02:24:00,62.6,25.3,25.13,East,101,0.0,0.0,24,0.00,,---,0.00,VWS V14.01,2013-07-03 07:24:00,
2013-07-03 02:25:00,62.6,25.3,25.13,East,101,0.0,0.0,24,0.00,,---,0.00,VWS V14.01,2013-07-03 07:25:00,
2013-07-03 02:27:00,62.4,26.2,25.13,East,101,0.0,0.0,25,0.00,,---,0.00,VWS V14.01,2013-07-03 07:27:00,
2013-07-03 02:29:00,62.4,26.2,25.13,East,101,0.0,0.0,25,0.00,,---,0.00,VWS V14.01,2013-07-03 07:29:00,
2013-07-03 02:30:00,62.4,26.2,25.13,East,83,0.0,0.0,25,0.00,,---,0.00,VWS V14.01,2013-07-03 07:30:00,
2013-07-03 02:33:00,62.2,26.0,25.13,East,83,0.0,0.0,25,0.00,,---,0.00,VWS V14.01,2013-07-03 07:33:00,
2013-07-03 02:37:00,62.2,26.0,25.13,WNW,299,4.9,4.9,25,0.00,,---,0.00,VWS V14.01,2013-07-03 07:37:00,
2013-07-03 02:38:00,62.1,25.9,25.13,WNW,303,4.0,4.0,25,0.00,,---,0.00,VWS V14.01,2013-07-03 07:38:00,
2013-07-03 02:39:00,62.1,25.9,25.13,WNW,303,4.0,4.0,25,0.00,,---,0.00,VWS V14.01,2013-07-03 07:39:00,
2013-07-03 02:42:00,62.1,25.9,25.13,NW,318,3.1,3.1,25,0.00,,---,0.00,VWS V14.01,2013-07-03 07:42:00,
2013-07-03 02:43:00,62.1,25.9,25.13,NW,318,3.1,3.1,25,0.00,,---,0.00,VWS V14.01,2013-07-03 07:43:00,
2013-07-03 02:44:00,62.1,25.9,25.13,NW,318,0.0,3.1,25,0.00,,---,0.00,VWS V14.01,2013-07-03 07:44:00,
2013-07-03 02:47:00,61.9,25.7,25.13,NW,318,0.0,0.0,25,0.00,,---,0.00,VWS V14.01,2013-07-03 07:47:00,
2013-07-03 02:48:00,61.9,25.7,25.13,NW,318,0.0,0.0,25,0.00,,---,0.00,VWS V14.01,2013-07-03 07:48:00,
2013-07-03 02:49:00,61.9,25.7,25.13,NW,318,0.0,0.0,25,0.00,,---,0.00,VWS V14.01,2013-07-03 07:49:00,
2013-07-03 02:50:00,61.9,25.7,25.13,NW,318,0.0,0.0,25,0.00,,---,0.00,VWS V14.01,2013-07-03 07:50:00,
2013-07-03 02:54:00,61.9,25.7,25.13,NW,317,0.0,0.0,25,0.00,,---,0.00,VWS V14.01,2013-07-03 07:54:00,
2013-07-03 02:55:00,61.9,25.7,25.13,NW,317,0.0,0.0,25,0.00,,---,0.00,VWS V14.01,2013-07-03 07:55:00,
2013-07-03 02:57:00,61.9,25.7,25.13,NW,317,0.0,0.0,25,0.00,,---,0.00,VWS V14.01,2013-07-03 07:57:00,
2013-07-03 02:59:00,61.9,25.7,25.13,NW,317,0.0,0.0,25,0.00,,---,0.00,VWS V14.01,2013-07-03 07:59:00,
2013-07-03 03:01:00,61.9,25.7,25.13,NW,317,0.0,0.0,25,0.00,,---,0.00,VWS V14.01,2013-07-03 08:01:00,
2013-07-03 03:02:00,61.9,25.7,25.13,NW,317,0.0,0.0,25,0.00,,---,0.00,VWS V14.01,2013-07-03 08:02:00,
2013-07-03 03:04:00,61.7,25.5,25.13,NW,317,0.0,0.0,25,0.00,,---,0.00,VWS V14.01,2013-07-03 08:04:00,
2013-07-03 03:06:00,61.7,25.5,25.13,NW,317,0.0,0.0,25,0.00,,---,0.00,VWS V14.01,2013-07-03 08:06:00,
2013-07-03 03:08:00,61.5,25.4,25.13,NW,317,0.0,0.0,25,0.00,,---,0.00,VWS V14.01,2013-07-03 08:08:00,
2013-07-03 03:09:00,61.5,25.4,25.13,NW,317,0.0,0.0,25,0.00,,---,0.00,VWS V14.01,2013-07-03 08:09:00,
2013-07-03 03:11:00,61.5,25.4,25.13,NW,323,0.0,0.0,25,0.00,,---,0.00,VWS V14.01,2013-07-03 08:11:00,
2013-07-03 03:14:00,61.3,26.2,25.13,NW,323,0.0,0.0,26,0.00,,---,0.00,VWS V14.01,2013-07-03 08:14:00,
2013-07-03 03:16:00,61.3,26.2,25.13,NW,325,0.0,0.0,26,0.00,,---,0.00,VWS V14.01,2013-07-03 08:16:00,
2013-07-03 03:19:00,61.3,26.2,25.13,NNW,328,2.7,2.7,26,0.00,,---,0.00,VWS V14.01,2013-07-03 08:19:00,
2013-07-03 03:20:00,61.3,26.2,25.13,NNW,329,2.7,2.7,26,0.00,,---,0.00,VWS V14.01,2013-07-03 08:20:00,
2013-07-03 03:22:00,61.5,26.3,25.13,NNW,329,2.7,2.7,26,0.00,,---,0.00,VWS V14.01,2013-07-03 08:22:00,
2013-07-03 03:24:00,61.5,26.3,25.13,NW,326,2.7,2.7,26,0.00,,---,0.00,VWS V14.01,2013-07-03 08:24:00,
2013-07-03 03:25:00,61.5,26.3,25.13,NW,326,2.7,2.7,26,0.00,,---,0.00,VWS V14.01,2013-07-03 08:25:00,
2013-07-03 03:28:00,61.7,26.5,25.13,NW,326,0.0,0.0,26,0.00,,---,0.00,VWS V14.01,2013-07-03 08:28:00,
2013-07-03 03:29:00,61.7,26.5,25.13,NW,326,0.0,0.0,26,0.00,,---,0.00,VWS V14.01,2013-07-03 08:29:00,
2013-07-03 03:30:00,61.7,26.5,25.13,NW,326,0.0,0.0,26,0.00,,---,0.00,VWS V14.01,2013-07-03 08:30:00,
2013-07-03 03:33:00,61.7,26.5,25.13,NW,326,0.0,0.0,26,0.00,,---,0.00,VWS V14.01,2013-07-03 08:33:00,
2013-07-03 03:35:00,61.7,26.5,25.13,NW,326,0.0,0.0,26,0.00,,---,0.00,VWS V14.01,2013-07-03 08:35:00,
2013-07-03 03:39:00,61.7,26.5,25.10,NW,326,0.0,0.0,26,0.00,,---,0.00,VWS V14.01,2013-07-03 08:39:00,
2013-07-03 03:40:00,61.9,26.6,25.10,NW,326,0.0,0.0,26,0.00,,---,0.00,VWS V14.01,2013-07-03 08:40:00,
2013-07-03 03:42:00,61.9,26.6,25.10,NW,326,0.0,0.0,26,0.00,,---,0.00,VWS V14.01,2013-07-03 08:42:00,
2013-07-03 03:44:00,61.9,26.6,25.10,NW,326,0.0,0.0,26,0.00,,---,0.00,VWS V14.01,2013-07-03 08:44:00,
2013-07-03 03:45:00,61.9,26.6,25.10,NW,326,0.0,0.0,26,0.00,,---,0.00,VWS V14.01,2013-07-03 08:45:00,
2013-07-03 03:50:00,61.9,26.6,25.10,NW,326,0.0,0.0,26,0.00,,---,0.00,VWS V14.01,2013-07-03 08:50:00,
2013-07-03 03:51:00,61.9,26.6,25.10,NW,325,0.0,0.0,26,0.00,,---,0.00,VWS V14.01,2013-07-03 08:51:00,
2013-07-03 03:54:00,61.9,26.6,25.10,NW,325,0.0,0.0,26,0.00,,---,0.00,VWS V14.01,2013-07-03 08:54:00,
2013-07-03 03:55:00,61.9,26.6,25.10,NW,325,0.0,0.0,26,0.00,,---,0.00,VWS V14.01,2013-07-03 08:55:00,
2013-07-03 03:56:00,61.9,26.6,25.10,NW,325,0.0,0.0,26,0.00,,---,0.00,VWS V14.01,2013-07-03 08:56:00,
2013-07-03 03:59:00,61.7,26.5,25.10,NW,325,0.0,0.0,26,0.00,,---,0.00,VWS V14.01,2013-07-03 08:59:00,
2013-07-03 04:00:00,61.7,26.5,25.10,NW,325,0.0,0.0,26,0.00,,---,0.00,VWS V14.01,2013-07-03 09:00:00,
2013-07-03 04:01:00,61.5,26.3,25.10,NW,325,0.0,0.0,26,0.00,,---,0.00,VWS V14.01,2013-07-03 09:01:00,
2013-07-03 04:05:00,61.5,26.3,25.10,NW,325,0.0,0.0,26,0.00,,---,0.00,VWS V14.01,2013-07-03 09:05:00,
2013-07-03 04:06:00,61.3,26.2,25.10,NW,325,0.0,0.0,26,0.00,,---,0.00,VWS V14.01,2013-07-03 09:06:00,
2013-07-03 04:10:00,61.3,27.1,25.10,NW,325,0.0,0.0,27,0.00,,---,0.00,VWS V14.01,2013-07-03 09:10:00,
2013-07-03 04:11:00,61.3,27.1,25.10,NW,308,0.0,0.0,27,0.00,,---,0.00,VWS V14.01,2013-07-03 09:11:00,
2013-07-03 04:15:00,61.3,27.1,25.10,NW,311,4.0,4.0,27,0.00,,---,0.00,VWS V14.01,2013-07-03 09:15:00,
2013-07-03 04:17:00,61.3,27.1,25.10,NW,311,4.0,4.0,27,0.00,,---,0.00,VWS V14.01,2013-07-03 09:17:00,
2013-07-03 04:20:00,61.3,27.1,25.10,NW,311,3.6,3.6,27,0.00,,---,0.00,VWS V14.01,2013-07-03 09:20:00,
2013-07-03 04:21:00,61.2,26.9,25.10,NW,311,3.6,3.6,27,0.00,,---,0.00,VWS V14.01,2013-07-03 09:21:00,
2013-07-03 04:22:00,61.2,26.9,25.10,NW,311,3.6,3.6,27,0.00,,---,0.00,VWS V14.01,2013-07-03 09:22:00,
2013-07-03 04:23:00,61.2,26.9,25.10,NW,311,3.6,3.6,27,0.00,,---,0.00,VWS V14.01,2013-07-03 09:23:00,
2013-07-03 04:26:00,61.0,26.8,25.10,NW,311,0.0,0.0,27,0.00,,---,0.00,VWS V14.01,2013-07-03 09:26:00,
2013-07-03 04:30:00,61.0,26.8,25.10,NW,311,0.0,0.0,27,0.00,,---,0.00,VWS V14.01,2013-07-03 09:30:00,
2013-07-03 04:33:00,61.0,26.8,25.10,NNW,336,0.0,0.0,27,0.00,,---,0.00,VWS V14.01,2013-07-03 09:33:00,
2013-07-03 04:37:00,61.0,26.8,25.10,North,353,0.0,0.0,27,0.00,,---,0.00,VWS V14.01,2013-07-03 09:37:00,
2013-07-03 04:38:00,61.0,26.8,25.10,North,353,0.0,0.0,27,0.00,,---,0.00,VWS V14.01,2013-07-03 09:38:00,
2013-07-03 04:41:00,61.0,26.8,25.10,North,353,0.0,0.0,27,0.00,,---,0.00,VWS V14.01,2013-07-03 09:41:00,
2013-07-03 04:43:00,61.0,26.8,25.10,North,353,0.0,0.0,27,0.00,,---,0.00,VWS V14.01,2013-07-03 09:43:00,
2013-07-03 04:46:00,61.0,26.8,25.10,North,353,0.0,0.0,27,0.00,,---,0.00,VWS V14.01,2013-07-03 09:46:00,
2013-07-03 04:48:00,61.0,26.8,25.10,North,353,0.0,0.0,27,0.00,,---,0.00,VWS V14.01,2013-07-03 09:48:00,
2013-07-03 04:49:00,61.0,26.8,25.10,North,353,0.0,0.0,27,0.00,,---,0.00,VWS V14.01,2013-07-03 09:49:00,
2013-07-03 04:50:00,61.0,26.8,25.10,North,353,0.0,0.0,27,0.00,,---,0.00,VWS V14.01,2013-07-03 09:50:00,
2013-07-03 04:53:00,61.2,26.9,25.10,North,353,0.0,0.0,27,0.00,,---,0.00,VWS V14.01,2013-07-03 09:53:00,
2013-07-03 04:54:00,61.2,26.9,25.10,North,353,0.0,0.0,27,0.00,,---,0.00,VWS V14.01,2013-07-03 09:54:00,
2013-07-03 04:55:00,61.2,26.9,25.10,North,353,0.0,0.0,27,0.00,,---,0.00,VWS V14.01,2013-07-03 09:55:00,
2013-07-03 04:59:00,61.2,26.9,25.10,North,353,0.0,0.0,27,0.00,,---,0.00,VWS V14.01,2013-07-03 09:59:00,
2013-07-03 05:00:00,61.2,26.9,25.10,North,353,0.0,0.0,27,0.00,,---,0.00,VWS V14.01,2013-07-03 10:00:00,
2013-07-03 05:04:00,61.0,26.8,25.10,North,353,0.0,0.0,27,0.00,,---,0.00,VWS V14.01,2013-07-03 10:04:00,
2013-07-03 05:05:00,61.0,26.8,25.10,North,353,0.0,0.0,27,0.00,,---,0.00,VWS V14.01,2013-07-03 10:05:00,
2013-07-03 05:06:00,61.0,26.8,25.10,North,353,0.0,0.0,27,0.00,,---,0.00,VWS V14.01,2013-07-03 10:06:00,
2013-07-03 05:07:00,61.0,26.8,25.10,North,353,0.0,0.0,27,0.00,,---,0.00,VWS V14.01,2013-07-03 10:07:00,
2013-07-03 05:09:00,61.0,27.7,25.10,North,353,0.0,0.0,28,0.00,,---,0.00,VWS V14.01,2013-07-03 10:09:00,
2013-07-03 05:11:00,61.0,27.7,25.10,North,353,0.0,0.0,28,0.00,,---,0.00,VWS V14.01,2013-07-03 10:11:00,
2013-07-03 05:12:00,61.0,27.7,25.10,North,353,0.0,0.0,28,0.00,,---,0.00,VWS V14.01,2013-07-03 10:12:00,
2013-07-03 05:15:00,61.0,27.7,25.10,North,353,0.0,0.0,28,0.00,,---,0.00,VWS V14.01,2013-07-03 10:15:00,
2013-07-03 05:16:00,61.0,27.7,25.10,North,353,0.0,0.0,28,0.00,,---,0.00,VWS V14.01,2013-07-03 10:16:00,
2013-07-03 05:17:00,61.0,27.7,25.10,North,353,0.0,0.0,28,0.00,,---,0.00,VWS V14.01,2013-07-03 10:17:00,
2013-07-03 05:21:00,61.0,27.7,25.10,North,353,0.0,0.0,28,0.00,,---,0.00,VWS V14.01,2013-07-03 10:21:00,
2013-07-03 05:22:00,61.2,27.8,25.10,North,353,0.0,0.0,28,0.00,,---,0.00,VWS V14.01,2013-07-03 10:22:00,
2013-07-03 05:23:00,61.2,27.8,25.10,North,353,0.0,0.0,28,0.00,,---,0.00,VWS V14.01,2013-07-03 10:23:00,
2013-07-03 05:26:00,61.2,27.8,25.10,North,353,0.0,0.0,28,0.00,,---,0.00,VWS V14.01,2013-07-03 10:26:00,
2013-07-03 05:28:00,61.2,27.8,25.10,North,353,0.0,0.0,28,0.00,,---,0.00,VWS V14.01,2013-07-03 10:28:00,
2013-07-03 05:31:00,61.3,28.0,25.10,North,353,0.0,0.0,28,0.00,,---,0.00,VWS V14.01,2013-07-03 10:31:00,
2013-07-03 05:33:00,61.3,28.0,25.10,NW,315,0.0,0.0,28,0.00,,---,0.00,VWS V14.01,2013-07-03 10:33:00,
2013-07-03 05:36:00,61.3,28.0,25.10,NW,315,0.0,0.0,28,0.00,,---,0.00,VWS V14.01,2013-07-03 10:36:00,
2013-07-03 05:37:00,61.3,28.0,25.10,NW,315,0.0,0.0,28,0.00,,---,0.00,VWS V14.01,2013-07-03 10:37:00,
2013-07-03 05:38:00,61.2,27.8,25.10,NW,315,0.0,0.0,28,0.00,,---,0.00,VWS V14.01,2013-07-03 10:38:00,
2013-07-03 05:42:00,61.2,27.8,25.10,NW,316,0.0,0.0,28,0.00,,---,0.00,VWS V14.01,2013-07-03 10:42:00,
2013-07-03 05:43:00,61.2,27.8,25.10,NW,316,0.0,0.0,28,0.00,,---,0.00,VWS V14.01,2013-07-03 10:43:00,
2013-07-03 05:47:00,61.2,27.8,25.10,NW,318,0.0,0.0,28,0.00,,---,0.00,VWS V14.01,2013-07-03 10:47:00,
2013-07-03 05:48:00,61.0,27.7,25.10,NW,318,0.0,0.0,28,0.00,,---,0.00,VWS V14.01,2013-07-03 10:48:00,
2013-07-03 05:49:00,61.0,27.7,25.10,NW,318,0.0,0.0,28,0.00,,---,0.00,VWS V14.01,2013-07-03 10:49:00,
2013-07-03 05:52:00,61.0,27.7,25.10,NW,318,0.0,0.0,28,0.00,,---,0.00,VWS V14.01,2013-07-03 10:52:00,
2013-07-03 05:54:00,60.8,27.5,25.10,NW,318,0.0,0.0,28,0.00,,---,0.00,VWS V14.01,2013-07-03 10:54:00,
2013-07-03 05:55:00,60.8,27.5,25.10,NW,318,0.0,0.0,28,0.00,,---,0.00,VWS V14.01,2013-07-03 10:55:00,
2013-07-03 05:57:00,60.8,27.5,25.10,NW,318,0.0,0.0,28,0.00,,---,0.00,VWS V14.01,2013-07-03 10:57:00,
2013-07-03 05:59:00,60.6,27.4,25.10,NW,318,0.0,0.0,28,0.00,,---,0.00,VWS V14.01,2013-07-03 10:59:00,
2013-07-03 06:00:00,60.6,27.4,25.10,NW,318,0.0,0.0,28,0.00,,---,0.00,VWS V14.01,2013-07-03 11:00:00,
2013-07-03 06:02:00,60.6,27.4,25.10,NW,318,0.0,0.0,28,0.00,,---,0.00,VWS V14.01,2013-07-03 11:02:00,
2013-07-03 06:04:00,60.6,27.4,25.10,NW,318,0.0,0.0,28,0.00,,---,0.00,VWS V14.01,2013-07-03 11:04:00,
2013-07-03 06:06:00,60.6,27.4,25.10,NW,318,0.0,0.0,28,0.00,,---,0.00,VWS V14.01,2013-07-03 11:06:00,
2013-07-03 06:07:00,60.6,27.4,25.10,NW,318,0.0,0.0,28,0.00,,---,0.00,VWS V14.01,2013-07-03 11:07:00,
2013-07-03 06:08:00,60.6,27.4,25.10,NW,318,0.0,0.0,28,0.00,,---,0.00,VWS V14.01,2013-07-03 11:08:00,
2013-07-03 06:09:00,60.8,27.5,25.10,NW,318,0.0,0.0,28,0.00,,---,0.00,VWS V14.01,2013-07-03 11:09:00,
2013-07-03 06:13:00,60.8,27.5,25.10,NW,318,0.0,0.0,28,0.00,,---,0.00,VWS V14.01,2013-07-03 11:13:00,
2013-07-03 06:15:00,60.8,27.5,25.10,NW,318,0.0,0.0,28,0.00,,---,0.00,VWS V14.01,2013-07-03 11:15:00,
2013-07-03 06:16:00,60.8,27.5,25.10,NW,318,0.0,0.0,28,0.00,,---,0.00,VWS V14.01,2013-07-03 11:16:00,
2013-07-03 06:18:00,60.8,27.5,25.10,NW,318,0.0,0.0,28,0.00,,---,0.00,VWS V14.01,2013-07-03 11:18:00,
2013-07-03 06:19:00,60.8,27.5,25.10,NW,318,0.0,0.0,28,0.00,,---,0.00,VWS V14.01,2013-07-03 11:19:00,
2013-07-03 06:21:00,60.8,27.5,25.10,NW,318,0.0,0.0,28,0.00,,---,0.00,VWS V14.01,2013-07-03 11:21:00,
2013-07-03 06:23:00,60.8,27.5,25.10,NW,318,0.0,0.0,28,0.00,,---,0.00,VWS V14.01,2013-07-03 11:23:00,
2013-07-03 06:25:00,60.8,27.5,25.10,NW,318,0.0,0.0,28,0.00,,---,0.00,VWS V14.01,2013-07-03 11:25:00,
2013-07-03 06:28:00,60.8,27.5,25.10,NW,318,0.0,0.0,28,0.00,,---,0.00,VWS V14.01,2013-07-03 11:28:00,
2013-07-03 06:29:00,60.8,27.5,25.10,NW,318,0.0,0.0,28,0.00,,---,0.00,VWS V14.01,2013-07-03 11:29:00,
2013-07-03 06:30:00,60.6,27.4,25.10,NW,318,0.0,0.0,28,0.00,,---,0.00,VWS V14.01,2013-07-03 11:30:00,
2013-07-03 06:33:00,60.6,27.4,25.10,NW,318,0.0,0.0,28,0.00,,---,0.00,VWS V14.01,2013-07-03 11:33:00,
2013-07-03 06:34:00,60.6,28.2,25.10,NW,318,0.0,0.0,29,0.00,,---,0.00,VWS V14.01,2013-07-03 11:34:00,
2013-07-03 06:35:00,60.4,28.1,25.10,NW,318,0.0,0.0,29,0.00,,---,0.00,VWS V14.01,2013-07-03 11:35:00,
2013-07-03 06:39:00,60.4,28.1,25.10,NW,318,0.0,0.0,29,0.00,,---,0.00,VWS V14.01,2013-07-03 11:39:00,
2013-07-03 06:40:00,60.3,27.9,25.10,NW,318,0.0,0.0,29,0.00,,---,0.00,VWS V14.01,2013-07-03 11:40:00,
2013-07-03 06:44:00,60.3,27.9,25.10,NW,318,0.0,0.0,29,0.00,,---,0.00,VWS V14.01,2013-07-03 11:44:00,
2013-07-03 06:45:00,60.3,27.9,25.10,NW,318,0.0,0.0,29,0.00,,---,0.00,VWS V14.01,2013-07-03 11:45:00,
2013-07-03 06:49:00,60.3,27.9,25.10,NW,318,0.0,0.0,29,0.00,,---,0.00,VWS V14.01,2013-07-03 11:49:00,
2013-07-03 06:50:00,60.3,27.9,25.10,NW,318,0.0,0.0,29,0.00,,---,0.00,VWS V14.01,2013-07-03 11:50:00,
2013-07-03 06:55:00,60.4,28.9,25.10,NW,318,0.0,0.0,30,0.00,,---,0.00,VWS V14.01,2013-07-03 11:55:00,
2013-07-03 06:57:00,60.4,28.9,25.10,NW,318,0.0,0.0,30,0.00,,---,0.00,VWS V14.01,2013-07-03 11:57:00,
2013-07-03 06:59:00,60.4,28.9,25.10,NW,318,0.0,0.0,30,0.00,,---,0.00,VWS V14.01,2013-07-03 11:59:00,
2013-07-03 07:00:00,60.4,28.9,25.10,NW,318,0.0,0.0,30,0.00,,---,0.00,VWS V14.01,2013-07-03 12:00:00,
2013-07-03 07:01:00,60.4,28.9,25.10,NW,318,0.0,0.0,30,0.00,,---,0.00,VWS V14.01,2013-07-03 12:01:00,
2013-07-03 07:03:00,60.6,29.0,25.10,NW,318,0.0,0.0,30,0.00,,---,0.00,VWS V14.01,2013-07-03 12:03:00,
2013-07-03 07:06:00,60.6,29.0,25.10,NW,318,0.0,0.0,30,0.00,,---,0.00,VWS V14.01,2013-07-03 12:06:00,
2013-07-03 07:18:00,60.4,28.1,25.10,NW,318,0.0,0.0,29,0.00,,---,0.00,VWS V14.01,2013-07-03 12:18:00,
2013-07-03 07:20:00,60.4,28.9,25.10,NW,318,0.0,0.0,30,0.00,,---,0.00,VWS V14.01,2013-07-03 12:20:00,
2013-07-03 07:25:00,60.6,29.0,25.10,NW,318,0.0,0.0,30,0.00,,---,0.00,VWS V14.01,2013-07-03 12:25:00,
2013-07-03 07:26:00,60.6,28.2,25.10,NW,318,0.0,0.0,29,0.00,,---,0.00,VWS V14.01,2013-07-03 12:26:00,
2013-07-03 08:02:00,61.7,29.1,25.10,NW,318,0.0,0.0,29,0.00,,---,0.00,VWS V14.01,2013-07-03 13:02:00,
2013-07-03 08:07:00,62.2,29.6,25.13,NW,318,0.0,0.0,29,0.00,,---,0.00,VWS V14.01,2013-07-03 13:07:00,
2013-07-03 08:08:00,62.4,29.8,25.13,NW,318,0.0,0.0,29,0.00,,---,0.00,VWS V14.01,2013-07-03 13:08:00,
2013-07-03 08:12:00,62.8,30.1,25.13,NW,318,0.0,0.0,29,0.00,,---,0.00,VWS V14.01,2013-07-03 13:12:00,
2013-07-03 08:14:00,63.1,30.4,25.13,NW,318,0.0,0.0,29,0.00,,---,0.00,VWS V14.01,2013-07-03 13:14:00,
2013-07-03 08:17:00,64.0,30.3,25.13,NW,318,0.0,0.0,28,0.00,,---,0.00,VWS V14.01,2013-07-03 13:17:00,
2013-07-03 08:18:00,64.2,30.5,25.13,NW,318,0.0,0.0,28,0.00,,---,0.00,VWS V14.01,2013-07-03 13:18:00,
2013-07-03 08:20:00,65.3,30.5,25.13,NW,318,0.0,0.0,27,0.00,,---,0.00,VWS V14.01,2013-07-03 13:20:00,
2013-07-03 08:23:00,66.0,31.1,25.13,NW,317,0.0,0.0,27,0.00,,---,0.00,VWS V14.01,2013-07-03 13:23:00,
2013-07-03 08:25:00,67.3,31.2,25.13,NW,317,0.0,0.0,26,0.00,,---,0.00,VWS V14.01,2013-07-03 13:25:00,
2013-07-03 08:28:00,68.0,30.9,25.13,NW,317,0.0,0.0,25,0.00,,---,0.00,VWS V14.01,2013-07-03 13:28:00,
2013-07-03 08:30:00,69.1,30.8,25.13,NW,317,0.0,0.0,24,0.00,,---,0.00,VWS V14.01,2013-07-03 13:30:00,
2013-07-03 08:34:00,70.0,30.5,25.13,NW,318,0.0,0.0,23,0.00,,---,0.00,VWS V14.01,2013-07-03 13:34:00,
2013-07-03 08:37:00,70.7,31.1,25.13,NW,318,0.0,0.0,23,0.00,,---,0.00,VWS V14.01,2013-07-03 13:37:00,
2013-07-03 08:40:00,71.2,30.5,25.13,NW,317,0.0,0.0,22,0.00,,---,0.00,VWS V14.01,2013-07-03 13:40:00,
2013-07-03 08:43:00,71.8,30.9,25.13,NW,317,0.0,0.0,22,0.00,,---,0.00,VWS V14.01,2013-07-03 13:43:00,
2013-07-03 08:45:00,72.1,31.2,25.13,NW,317,0.0,0.0,22,0.00,,---,0.00,VWS V14.01,2013-07-03 13:45:00,
2013-07-03 08:48:00,72.7,31.7,25.13,NW,317,0.0,0.0,22,0.00,,---,0.00,VWS V14.01,2013-07-03 13:48:00,
2013-07-03 08:49:00,73.0,32.0,25.13,NW,317,0.0,0.0,22,0.00,,---,0.00,VWS V14.01,2013-07-03 13:49:00,
2013-07-03 08:50:00,73.2,31.0,25.13,NW,317,0.0,0.0,21,0.00,,---,0.00,VWS V14.01,2013-07-03 13:50:00,
2013-07-03 08:53:00,73.6,31.3,25.13,NW,317,0.0,0.0,21,0.00,,---,0.00,VWS V14.01,2013-07-03 13:53:00,
2013-07-03 08:54:00,73.8,31.4,25.13,NW,317,0.0,0.0,21,0.00,,---,0.00,VWS V14.01,2013-07-03 13:54:00,
2013-07-03 08:56:00,73.9,31.6,25.13,NW,317,0.0,0.0,21,0.00,,---,0.00,VWS V14.01,2013-07-03 13:56:00,
2013-07-03 08:58:00,74.1,31.7,25.13,North,3,0.0,0.0,21,0.00,,---,0.00,VWS V14.01,2013-07-03 13:58:00,
2013-07-03 08:59:00,74.3,31.9,25.13,North,3,0.0,0.0,21,0.00,,---,0.00,VWS V14.01,2013-07-03 13:59:00,
2013-07-03 09:01:00,74.5,28.2,25.13,WSW,241,3.6,3.6,18,0.00,,---,0.00,VWS V14.01,2013-07-03 14:01:00,
2013-07-03 09:04:00,74.7,28.4,25.13,WSW,241,3.6,3.6,18,0.00,,---,0.00,VWS V14.01,2013-07-03 14:04:00,
2013-07-03 09:06:00,74.5,28.2,25.13,SW,216,6.3,6.3,18,0.00,,---,0.00,VWS V14.01,2013-07-03 14:06:00,
2013-07-03 09:10:00,74.3,28.1,25.13,WSW,257,3.6,6.3,18,0.00,,---,0.00,VWS V14.01,2013-07-03 14:10:00,
2013-07-03 09:11:00,74.3,28.1,25.13,WSW,257,3.6,3.6,18,0.00,,---,0.00,VWS V14.01,2013-07-03 14:11:00,
2013-07-03 09:15:00,74.8,28.5,25.13,SW,219,8.1,8.1,18,0.00,,---,0.00,VWS V14.01,2013-07-03 14:15:00,
2013-07-03 09:16:00,74.8,28.5,25.13,SW,224,6.3,8.1,18,0.00,,---,0.00,VWS V14.01,2013-07-03 14:16:00,
2013-07-03 09:17:00,74.8,28.5,25.13,SW,224,6.3,6.3,18,0.00,,---,0.00,VWS V14.01,2013-07-03 14:17:00,
2013-07-03 09:21:00,74.8,28.5,25.13,SSW,208,5.8,5.8,18,0.00,,---,0.00,VWS V14.01,2013-07-03 14:21:00,
2013-07-03 09:22:00,74.8,28.5,25.13,SSW,208,5.8,5.8,18,0.00,,---,0.00,VWS V14.01,2013-07-03 14:22:00,
2013-07-03 09:23:00,74.8,28.5,25.13,SSW,208,5.8,5.8,18,0.00,,---,0.00,VWS V14.01,2013-07-03 14:23:00,
2013-07-03 09:26:00,75.0,28.7,25.13,WSW,257,8.1,8.1,18,0.00,,---,0.00,VWS V14.01,2013-07-03 14:26:00,
2013-07-03 09:27:00,75.2,28.8,25.13,WSW,257,8.1,8.1,18,0.00,,---,0.00,VWS V14.01,2013-07-03 14:27:00,
2013-07-03 09:28:00,75.2,28.8,25.13,WSW,247,7.6,7.6,18,0.00,,---,0.00,VWS V14.01,2013-07-03 14:28:00,
2013-07-03 09:31:00,75.4,24.6,25.13,WSW,247,7.6,7.6,15,0.00,,---,0.00,VWS V14.01,2013-07-03 14:31:00,
2013-07-03 09:32:00,75.2,28.8,25.13,WSW,247,7.6,7.6,18,0.00,,---,0.00,VWS V14.01,2013-07-03 14:32:00,
2013-07-03 09:33:00,75.0,28.7,25.13,WSW,247,7.6,7.6,18,0.00,,---,0.00,VWS V14.01,2013-07-03 14:33:00,
2013-07-03 09:36:00,75.2,28.8,25.13,WSW,247,7.6,7.6,18,0.00,,---,0.00,VWS V14.01,2013-07-03 14:36:00,
2013-07-03 09:37:00,75.2,28.8,25.13,SW,221,4.0,4.0,18,0.00,,---,0.00,VWS V14.01,2013-07-03 14:37:00,
2013-07-03 09:38:00,75.4,24.6,25.13,SSW,200,3.6,4.0,15,0.00,,---,0.00,VWS V14.01,2013-07-03 14:38:00,
2013-07-03 09:39:00,75.4,24.6,25.13,SSW,200,3.6,4.0,15,0.00,,---,0.00,VWS V14.01,2013-07-03 14:39:00,
2013-07-03 09:41:00,75.6,24.7,25.13,SW,217,5.8,5.8,15,0.00,,---,0.00,VWS V14.01,2013-07-03 14:41:00,
2013-07-03 09:43:00,75.7,24.9,25.13,SW,217,5.8,5.8,15,0.00,,---,0.00,VWS V14.01,2013-07-03 14:43:00,
2013-07-03 09:44:00,75.7,24.9,25.13,SW,217,5.8,5.8,15,0.00,,---,0.00,VWS V14.01,2013-07-03 14:44:00,
2013-07-03 09:46:00,76.1,25.1,25.13,SW,217,5.8,5.8,15,0.00,,---,0.00,VWS V14.01,2013-07-03 14:46:00,
2013-07-03 09:47:00,76.1,25.1,25.13,SW,217,5.8,5.8,15,0.00,,---,0.00,VWS V14.01,2013-07-03 14:47:00,
2013-07-03 09:48:00,76.1,25.1,25.13,SW,217,5.8,5.8,15,0.00,,---,0.00,VWS V14.01,2013-07-03 14:48:00,
2013-07-03 09:51:00,76.1,25.1,25.13,WSW,255,8.1,8.1,15,0.00,,---,0.00,VWS V14.01,2013-07-03 14:51:00,
2013-07-03 09:52:00,76.3,29.7,25.13,WSW,255,8.1,8.1,18,0.00,,---,0.00,VWS V14.01,2013-07-03 14:52:00,
2013-07-03 09:53:00,76.5,29.9,25.13,WSW,255,8.1,8.1,18,0.00,,---,0.00,VWS V14.01,2013-07-03 14:53:00,
2013-07-03 10:02:00,77.2,26.0,25.13,SW,227,6.3,6.3,15,0.00,,---,0.00,VWS V14.01,2013-07-03 15:02:00,
2013-07-03 10:21:00,75.7,24.9,25.13,SW,226,5.4,8.3,15,0.00,,---,0.00,VWS V14.01,2013-07-03 15:21:00,
2013-07-03 10:26:00,74.8,25.7,25.13,SW,235,8.3,8.3,16,0.00,,---,0.00,VWS V14.01,2013-07-03 15:26:00,
2013-07-03 10:27:00,74.8,25.7,25.13,SW,235,8.3,8.3,16,0.00,,---,0.00,VWS V14.01,2013-07-03 15:27:00,
2013-07-03 10:28:00,74.7,25.5,25.13,SW,235,8.3,8.3,16,0.00,,---,0.00,VWS V14.01,2013-07-03 15:28:00,
2013-07-03 10:31:00,74.5,25.4,25.13,SSW,213,6.3,6.3,16,0.00,,---,0.00,VWS V14.01,2013-07-03 15:31:00,
2013-07-03 10:32:00,74.5,25.4,25.13,SSW,213,6.3,6.3,16,0.00,,---,0.00,VWS V14.01,2013-07-03 15:32:00,
2013-07-03 10:34:00,74.5,28.2,25.13,SSW,213,6.3,6.3,18,0.00,,---,0.00,VWS V14.01,2013-07-03 15:34:00,
2013-07-03 10:37:00,75.0,28.7,25.13,WSW,238,8.7,8.7,18,0.00,,---,0.00,VWS V14.01,2013-07-03 15:37:00,
2013-07-03 10:38:00,75.4,29.0,25.13,WSW,238,8.7,8.7,18,0.00,,---,0.00,VWS V14.01,2013-07-03 15:38:00,
2013-07-03 10:40:00,76.6,30.0,25.13,WSW,238,8.7,8.7,18,0.00,,---,0.00,VWS V14.01,2013-07-03 15:40:00,
2013-07-03 10:42:00,77.7,30.9,25.13,WSW,238,8.7,8.7,18,0.00,,---,0.00,VWS V14.01,2013-07-03 15:42:00,
2013-07-03 10:43:00,77.7,30.9,25.13,WSW,238,8.7,8.7,18,0.00,,---,0.00,VWS V14.01,2013-07-03 15:43:00,
2013-07-03 10:47:00,78.6,27.1,25.13,SSW,199,4.9,4.9,15,0.00,,---,0.00,VWS V14.01,2013-07-03 15:47:00,
2013-07-03 10:48:00,78.6,27.1,25.13,SSW,213,6.3,6.3,15,0.00,,---,0.00,VWS V14.01,2013-07-03 15:48:00,
2013-07-03 10:49:00,78.6,27.1,25.13,SSW,213,6.3,6.3,15,0.00,,---,0.00,VWS V14.01,2013-07-03 15:49:00,
2013-07-03 10:52:00,78.3,26.9,25.13,SSW,213,6.3,6.3,15,0.00,,---,0.00,VWS V14.01,2013-07-03 15:52:00,
2013-07-03 10:53:00,77.9,26.6,25.13,SSW,213,6.3,6.3,15,0.00,,---,0.00,VWS V14.01,2013-07-03 15:53:00,
2013-07-03 10:57:00,77.9,26.6,25.13,SSW,207,5.4,7.6,15,0.00,,---,0.00,VWS V14.01,2013-07-03 15:57:00,
2013-07-03 10:58:00,77.9,26.6,25.13,SSW,207,5.4,5.4,15,0.00,,---,0.00,VWS V14.01,2013-07-03 15:58:00,
2013-07-03 11:02:00,78.1,26.7,25.13,WSW,239,6.3,6.3,15,0.00,,---,0.00,VWS V14.01,2013-07-03 16:02:00,
2013-07-03 11:03:00,78.3,26.9,25.13,WSW,239,6.3,6.3,15,0.00,,---,0.00,VWS V14.01,2013-07-03 16:03:00,
2013-07-03 11:09:00,79.5,27.9,25.13,WSW,239,6.3,6.3,15,0.00,,---,0.00,VWS V14.01,2013-07-03 16:09:00,
2013-07-03 11:14:00,80.2,28.4,25.13,SSW,206,4.9,10.1,15,0.00,,---,0.00,VWS V14.01,2013-07-03 16:14:00,
2013-07-03 11:15:00,80.4,28.6,25.13,SSW,206,4.9,4.9,15,0.00,,---,0.00,VWS V14.01,2013-07-03 16:15:00,
2013-07-03 11:19:00,81.3,27.6,25.13,WSW,251,10.1,10.1,14,0.00,,---,0.00,VWS V14.01,2013-07-03 16:19:00,
2013-07-03 11:20:00,81.1,27.5,25.13,WSW,251,10.1,10.1,14,0.00,,---,0.00,VWS V14.01,2013-07-03 16:20:00,
2013-07-03 11:24:00,80.4,28.6,25.13,WSW,245,10.1,10.1,15,0.00,,---,0.00,VWS V14.01,2013-07-03 16:24:00,
2013-07-03 11:25:00,80.4,28.6,25.13,WSW,245,10.1,10.1,15,0.00,,---,0.00,VWS V14.01,2013-07-03 16:25:00,
2013-07-03 11:29:00,78.8,27.3,25.13,SSW,198,5.8,5.8,15,0.00,,---,0.00,VWS V14.01,2013-07-03 16:29:00,
2013-07-03 11:30:00,78.4,27.0,25.13,WSW,237,7.6,7.6,15,0.00,,---,0.00,VWS V14.01,2013-07-03 16:30:00,
2013-07-03 11:35:00,77.5,26.3,25.13,WSW,237,7.6,7.6,15,0.00,,---,0.00,VWS V14.01,2013-07-03 16:35:00,
2013-07-03 11:36:00,77.5,26.3,25.13,WSW,237,7.6,7.6,15,0.00,,---,0.00,VWS V14.01,2013-07-03 16:36:00,
2013-07-03 11:40:00,78.1,26.7,25.13,SSW,196,5.4,7.2,15,0.00,,---,0.00,VWS V14.01,2013-07-03 16:40:00,
2013-07-03 11:44:00,79.2,27.6,25.13,SSW,196,5.4,5.4,15,0.00,,---,0.00,VWS V14.01,2013-07-03 16:44:00,
2013-07-03 11:46:00,79.7,28.0,25.13,SSW,196,5.4,5.4,15,0.00,,---,0.00,VWS V14.01,2013-07-03 16:46:00,
2013-07-03 11:49:00,80.8,27.2,25.13,West,268,7.6,7.6,14,0.00,,---,0.00,VWS V14.01,2013-07-03 16:49:00,
2013-07-03 11:50:00,81.0,27.3,25.13,West,269,9.6,9.6,14,0.00,,---,0.00,VWS V14.01,2013-07-03 16:50:00,
2013-07-03 11:51:00,81.3,27.6,25.13,West,269,9.6,9.6,14,0.00,,---,0.00,VWS V14.01,2013-07-03 16:51:00,
2013-07-03 11:54:00,81.9,28.0,25.13,WSW,258,6.3,8.7,14,0.00,,---,0.00,VWS V14.01,2013-07-03 16:54:00,
2013-07-03 11:55:00,81.9,28.0,25.13,WSW,239,5.4,8.3,14,0.00,,---,0.00,VWS V14.01,2013-07-03 16:55:00,
2013-07-03 11:56:00,82.0,28.2,25.13,SW,226,6.3,10.1,14,0.00,,---,0.00,VWS V14.01,2013-07-03 16:56:00,
2013-07-03 11:59:00,81.7,27.9,25.13,WSW,246,10.1,10.1,14,0.00,,---,0.00,VWS V14.01,2013-07-03 16:59:00,
2013-07-03 12:00:00,81.7,27.9,25.13,West,262,5.8,10.1,14,0.00,,---,0.00,VWS V14.01,2013-07-03 17:00:00,
2013-07-03 12:01:00,81.7,27.9,25.13,WSW,239,5.4,6.7,14,0.00,,---,0.00,VWS V14.01,2013-07-03 17:01:00,
2013-07-03 12:05:00,81.0,27.3,25.13,SW,234,4.0,5.8,14,0.00,,---,0.00,VWS V14.01,2013-07-03 17:05:00,
2013-07-03 12:06:00,80.8,27.2,25.13,SSW,204,4.5,4.5,14,0.00,,---,0.00,VWS V14.01,2013-07-03 17:06:00,
2013-07-03 12:10:00,81.1,27.5,25.10,WSW,245,6.3,6.3,14,0.00,,---,0.00,VWS V14.01,2013-07-03 17:10:00,
2013-07-03 12:11:00,81.1,27.5,25.10,SSW,202,8.7,8.7,14,0.00,,---,0.00,VWS V14.01,2013-07-03 17:11:00,
2013-07-03 12:12:00,81.3,27.6,25.10,SSW,195,5.8,8.3,14,0.00,,---,0.00,VWS V14.01,2013-07-03 17:12:00,
2013-07-03 12:16:00,81.0,27.3,25.10,SSW,210,6.3,6.3,14,0.00,,---,0.00,VWS V14.01,2013-07-03 17:16:00,
2013-07-03 12:17:00,80.8,27.2,25.10,SSW,210,6.3,6.3,14,0.00,,---,0.00,VWS V14.01,2013-07-03 17:17:00,
2013-07-03 12:18:00,80.2,28.4,25.10,South,177,5.4,10.1,15,0.00,,---,0.00,VWS V14.01,2013-07-03 17:18:00,
2013-07-03 12:21:00,80.6,27.0,25.10,SW,221,8.3,8.3,14,0.00,,---,0.00,VWS V14.01,2013-07-03 17:21:00,
2013-07-03 12:22:00,80.8,27.2,25.10,SW,218,7.6,10.1,14,0.00,,---,0.00,VWS V14.01,2013-07-03 17:22:00,
2013-07-03 12:23:00,81.1,27.5,25.10,WSW,240,5.8,7.6,14,0.00,,---,0.00,VWS V14.01,2013-07-03 17:23:00,
2013-07-03 12:27:00,82.8,28.8,25.10,SSW,198,8.1,10.5,14,0.00,,---,0.00,VWS V14.01,2013-07-03 17:27:00,
2013-07-03 12:28:00,82.9,28.9,25.10,South,175,6.3,8.1,14,0.00,,---,0.00,VWS V14.01,2013-07-03 17:28:00,
2013-07-03 12:33:00,82.2,28.3,25.10,WSW,238,8.3,8.3,14,0.00,,---,0.00,VWS V14.01,2013-07-03 17:33:00,
2013-07-03 12:34:00,82.0,28.2,25.10,SW,233,4.0,8.3,14,0.00,,---,0.00,VWS V14.01,2013-07-03 17:34:00,
2013-07-03 12:38:00,81.5,27.8,25.10,SW,214,5.4,5.8,14,0.00,,---,0.00,VWS V14.01,2013-07-03 17:38:00,
2013-07-03 12:39:00,81.7,27.9,25.10,West,278,4.0,4.9,14,0.00,,---,0.00,VWS V14.01,2013-07-03 17:39:00,
2013-07-03 12:40:00,81.9,28.0,25.10,NW,315,3.1,8.1,14,0.00,,---,0.00,VWS V14.01,2013-07-03 17:40:00,
2013-07-03 12:43:00,82.0,28.2,25.10,SW,235,8.1,8.1,14,0.00,,---,0.00,VWS V14.01,2013-07-03 17:43:00,
2013-07-03 12:44:00,82.2,28.3,25.10,SW,230,8.7,10.1,14,0.00,,---,0.00,VWS V14.01,2013-07-03 17:44:00,
2013-07-03 12:48:00,81.7,27.9,25.10,WSW,250,6.3,6.3,14,0.00,,---,0.00,VWS V14.01,2013-07-03 17:48:00,
2013-07-03 12:49:00,81.5,27.8,25.10,WSW,241,6.3,6.3,14,0.00,,---,0.00,VWS V14.01,2013-07-03 17:49:00,
2013-07-03 12:58:00,81.5,27.8,25.10,SSW,212,6.7,6.7,14,0.00,,---,0.00,VWS V14.01,2013-07-03 17:58:00,
2013-07-03 13:20:00,79.2,27.6,25.10,SSW,205,6.3,7.6,15,0.00,,---,0.00,VWS V14.01,2013-07-03 18:20:00,
2013-07-03 13:21:00,79.2,27.6,25.10,South,180,3.6,7.6,15,0.00,,---,0.00,VWS V14.01,2013-07-03 18:21:00,
2013-07-03 13:30:00,79.5,27.9,25.10,WSW,250,7.2,7.2,15,0.00,,---,0.00,VWS V14.01,2013-07-03 18:30:00,
2013-07-03 13:31:00,79.5,27.9,25.10,WSW,243,7.6,7.6,15,0.00,,---,0.00,VWS V14.01,2013-07-03 18:31:00,
2013-07-03 13:35:00,79.5,27.9,25.10,SW,234,3.1,3.1,15,0.00,,---,0.00,VWS V14.01,2013-07-03 18:35:00,
2013-07-03 13:36:00,79.5,27.9,25.10,SW,234,2.7,2.7,15,0.00,,---,0.00,VWS V14.01,2013-07-03 18:36:00,
2013-07-03 13:40:00,80.1,28.3,25.10,SSW,198,5.4,5.8,15,0.00,,---,0.00,VWS V14.01,2013-07-03 18:40:00,
2013-07-03 13:41:00,80.1,28.3,25.10,South,183,5.4,5.4,15,0.00,,---,0.00,VWS V14.01,2013-07-03 18:41:00,
2013-07-03 13:45:00,79.5,27.9,25.10,South,189,3.1,3.1,15,0.00,,---,0.00,VWS V14.01,2013-07-03 18:45:00,
2013-07-03 13:47:00,79.2,27.6,25.10,South,182,2.7,3.1,15,0.00,,---,0.00,VWS V14.01,2013-07-03 18:47:00,
2013-07-03 13:50:00,79.5,27.9,25.10,NNW,330,6.3,8.7,15,0.00,,---,0.00,VWS V14.01,2013-07-03 18:50:00,
2013-07-03 13:52:00,79.9,28.1,25.10,WNW,289,4.9,5.8,15,0.00,,---,0.00,VWS V14.01,2013-07-03 18:52:00,
2013-07-03 13:56:00,81.1,27.5,25.10,NW,311,5.8,6.3,14,0.00,,---,0.00,VWS V14.01,2013-07-03 18:56:00,
2013-07-03 13:57:00,81.1,27.5,25.10,NNW,337,3.1,5.4,14,0.00,,---,0.00,VWS V14.01,2013-07-03 18:57:00,
2013-07-03 14:02:00,81.1,27.5,25.10,SSW,206,4.9,5.4,14,0.00,,---,0.00,VWS V14.01,2013-07-03 19:02:00,
2013-07-03 14:03:00,80.8,27.2,25.10,SSW,209,6.7,6.7,14,0.00,,---,0.00,VWS V14.01,2013-07-03 19:03:00,
2013-07-03 14:18:00,77.5,26.3,25.07,SSW,208,5.4,5.4,15,0.00,,---,0.00,VWS V14.01,2013-07-03 19:18:00,
2013-07-03 14:21:00,77.5,26.3,25.07,SSW,193,3.6,3.6,15,0.00,,---,0.00,VWS V14.01,2013-07-03 19:21:00,
2013-07-03 14:22:00,77.4,26.1,25.07,WSW,238,3.6,3.6,15,0.00,,---,0.00,VWS V14.01,2013-07-03 19:22:00,
2013-07-03 14:23:00,77.4,26.1,25.07,SSW,199,2.7,2.7,15,0.00,,---,0.00,VWS V14.01,2013-07-03 19:23:00,
2013-07-03 14:26:00,77.5,26.3,25.07,SSE,162,3.1,3.1,15,0.00,,---,0.00,VWS V14.01,2013-07-03 19:26:00,
2013-07-03 14:27:00,77.4,26.1,25.07,SSE,162,3.1,3.1,15,0.00,,---,0.00,VWS V14.01,2013-07-03 19:27:00,
2013-07-03 14:29:00,77.4,26.1,25.07,SSE,159,2.2,2.2,15,0.00,,---,0.00,VWS V14.01,2013-07-03 19:29:00,
2013-07-03 14:32:00,77.2,26.0,25.07,SSE,159,0.0,0.0,15,0.00,,---,0.00,VWS V14.01,2013-07-03 19:32:00,
2013-07-03 14:33:00,77.4,26.1,25.07,South,171,0.0,0.0,15,0.00,,---,0.00,VWS V14.01,2013-07-03 19:33:00,
2013-07-03 14:34:00,77.2,26.0,25.07,SSE,156,4.9,4.9,15,0.00,,---,0.00,VWS V14.01,2013-07-03 19:34:00,
2013-07-03 14:37:00,77.2,26.0,25.07,South,182,4.0,4.9,15,0.00,,---,0.00,VWS V14.01,2013-07-03 19:37:00,
2013-07-03 14:38:00,77.2,26.0,25.07,SSW,203,6.3,6.3,15,0.00,,---,0.00,VWS V14.01,2013-07-03 19:38:00,
2013-07-03 14:39:00,77.4,26.1,25.07,SSW,210,5.4,6.3,15,0.00,,---,0.00,VWS V14.01,2013-07-03 19:39:00,
2013-07-03 14:42:00,77.5,26.3,25.07,SW,225,6.3,6.3,15,0.00,,---,0.00,VWS V14.01,2013-07-03 19:42:00,
2013-07-03 14:43:00,77.7,26.4,25.07,SE,137,4.9,4.9,15,0.00,,---,0.00,VWS V14.01,2013-07-03 19:43:00,
2013-07-03 14:44:00,77.7,26.4,25.07,SSE,165,3.1,4.9,15,0.00,,---,0.00,VWS V14.01,2013-07-03 19:44:00,
2013-07-03 14:47:00,77.4,26.1,25.07,South,180,3.6,4.5,15,0.00,,---,0.00,VWS V14.01,2013-07-03 19:47:00,
2013-07-03 14:49:00,77.4,26.1,25.07,SW,236,4.9,5.8,15,0.00,,---,0.00,VWS V14.01,2013-07-03 19:49:00,
2013-07-03 14:50:00,77.4,26.1,25.07,SSW,210,3.6,4.9,15,0.00,,---,0.00,VWS V14.01,2013-07-03 19:50:00,
2013-07-03 14:52:00,77.5,26.3,25.07,WSW,248,7.6,7.6,15,0.00,,---,0.00,VWS V14.01,2013-07-03 19:52:00,
2013-07-03 14:54:00,77.7,26.4,25.07,SW,224,3.1,4.0,15,0.00,,---,0.00,VWS V14.01,2013-07-03 19:54:00,
2013-07-03 14:55:00,77.7,26.4,25.07,SW,224,3.6,3.6,15,0.00,,---,0.00,VWS V14.01,2013-07-03 19:55:00,
2013-07-03 14:57:00,77.9,26.6,25.07,SW,230,2.7,2.7,15,0.00,,---,0.00,VWS V14.01,2013-07-03 19:57:00,
2013-07-03 15:00:00,77.9,26.6,25.07,SSW,198,4.5,4.9,15,0.00,,---,0.00,VWS V14.01,2013-07-03 20:00:00,
2013-07-03 15:02:00,77.7,26.4,25.07,WSW,256,3.1,3.1,15,0.00,,---,0.00,VWS V14.01,2013-07-03 20:02:00,
2013-07-03 15:05:00,77.7,26.4,25.07,WNW,286,4.0,4.9,15,0.00,,---,0.00,VWS V14.01,2013-07-03 20:05:00,
2013-07-03 15:08:00,77.7,26.4,25.07,SSW,208,4.0,4.0,15,0.00,,---,0.00,VWS V14.01,2013-07-03 20:08:00,
2013-07-03 15:10:00,77.7,26.4,25.07,East,79,0.0,3.1,15,0.00,,---,0.00,VWS V14.01,2013-07-03 20:10:00,
2013-07-03 15:11:00,77.7,26.4,25.07,South,186,3.6,3.6,15,0.00,,---,0.00,VWS V14.01,2013-07-03 20:11:00,
2013-07-03 15:14:00,77.7,26.4,25.07,SSW,213,4.0,4.9,15,0.00,,---,0.00,VWS V14.01,2013-07-03 20:14:00,
2013-07-03 15:15:00,77.7,26.4,25.07,SSE,159,3.1,4.0,15,0.00,,---,0.00,VWS V14.01,2013-07-03 20:15:00,
2013-07-03 15:16:00,77.7,26.4,25.07,South,187,4.0,4.0,15,0.00,,---,0.00,VWS V14.01,2013-07-03 20:16:00,
2013-07-03 15:19:00,77.9,26.6,25.07,SW,230,4.0,4.0,15,0.00,,---,0.00,VWS V14.01,2013-07-03 20:19:00,
2013-07-03 15:21:00,78.3,26.9,25.07,West,259,4.0,5.4,15,0.00,,---,0.00,VWS V14.01,2013-07-03 20:21:00,
2013-07-03 15:22:00,78.6,27.1,25.07,SSW,199,5.4,5.4,15,0.00,,---,0.00,VWS V14.01,2013-07-03 20:22:00,
2013-07-03 15:25:00,80.2,28.4,25.07,SW,224,4.0,4.0,15,0.00,,---,0.00,VWS V14.01,2013-07-03 20:25:00,
2013-07-03 15:26:00,81.0,27.3,25.07,WSW,241,6.3,6.3,14,0.00,,---,0.00,VWS V14.01,2013-07-03 20:26:00,
2013-07-03 15:27:00,81.0,27.3,25.07,SW,232,7.2,7.2,14,0.00,,---,0.00,VWS V14.01,2013-07-03 20:27:00,
2013-07-03 15:28:00,81.9,28.0,25.07,WSW,249,8.3,8.3,14,0.00,,---,0.00,VWS V14.01,2013-07-03 20:28:00,
2013-07-03 15:31:00,83.3,29.2,25.07,WSW,239,8.1,8.1,14,0.00,,---,0.00,VWS V14.01,2013-07-03 20:31:00,
2013-07-03 15:32:00,84.4,28.2,25.07,SW,217,6.3,6.3,13,0.00,,---,0.00,VWS V14.01,2013-07-03 20:32:00,
2013-07-03 15:33:00,84.6,28.4,25.07,South,183,5.8,6.3,13,0.00,,---,0.00,VWS V14.01,2013-07-03 20:33:00,
2013-07-03 15:36:00,84.6,28.4,25.07,SSE,159,5.8,5.8,13,0.00,,---,0.00,VWS V14.01,2013-07-03 20:36:00,
2013-07-03 15:37:00,84.4,28.2,25.07,SSE,160,6.3,6.3,13,0.00,,---,0.00,VWS V14.01,2013-07-03 20:37:00,
2013-07-03 15:38:00,84.0,29.8,25.07,SSW,195,6.3,6.3,14,0.00,,---,0.00,VWS V14.01,2013-07-03 20:38:00,
2013-07-03 15:42:00,83.8,29.6,25.07,SSE,152,7.6,7.6,14,0.00,,---,0.00,VWS V14.01,2013-07-03 20:42:00,
2013-07-03 15:43:00,84.0,29.8,25.07,South,186,8.3,10.5,14,0.00,,---,0.00,VWS V14.01,2013-07-03 20:43:00,
2013-07-03 15:44:00,83.7,29.5,25.07,SSE,154,8.7,10.1,14,0.00,,---,0.00,VWS V14.01,2013-07-03 20:44:00,
2013-07-03 15:47:00,83.1,29.0,25.07,SSE,152,5.4,6.3,14,0.00,,---,0.00,VWS V14.01,2013-07-03 20:47:00,
2013-07-03 15:48:00,82.9,28.9,25.07,SSE,160,5.8,8.1,14,0.00,,---,0.00,VWS V14.01,2013-07-03 20:48:00,
2013-07-03 15:49:00,82.8,28.8,25.07,ESE,108,3.6,5.8,14,0.00,,---,0.00,VWS V14.01,2013-07-03 20:49:00,
2013-07-03 15:53:00,82.4,28.5,25.07,South,180,6.3,8.3,14,0.00,,---,0.00,VWS V14.01,2013-07-03 20:53:00,
2013-07-03 15:54:00,82.4,28.5,25.07,South,172,5.4,5.4,14,0.00,,---,0.00,VWS V14.01,2013-07-03 20:54:00,
2013-07-03 15:55:00,82.4,28.5,25.07,SSE,154,4.9,6.3,14,0.00,,---,0.00,VWS V14.01,2013-07-03 20:55:00,
2013-07-03 15:59:00,82.6,28.6,25.04,SSW,193,8.3,11.0,14,0.00,,---,0.00,VWS V14.01,2013-07-03 20:59:00,
2013-07-03 16:02:00,81.9,28.0,25.04,SE,133,5.8,6.3,14,0.00,,---,0.00,VWS V14.01,2013-07-03 21:02:00,
2013-07-03 16:03:00,81.7,27.9,25.04,East,81,5.4,5.8,14,0.00,,---,0.00,VWS V14.01,2013-07-03 21:03:00,
2013-07-03 16:07:00,81.3,27.6,25.04,SSE,156,5.8,5.8,14,0.00,,---,0.00,VWS V14.01,2013-07-03 21:07:00,
2013-07-03 16:08:00,81.7,27.9,25.04,South,183,8.3,8.7,14,0.00,,---,0.00,VWS V14.01,2013-07-03 21:08:00,
2013-07-03 16:12:00,83.3,29.2,25.04,South,185,4.9,8.7,14,0.00,,---,0.00,VWS V14.01,2013-07-03 21:12:00,
2013-07-03 16:13:00,83.5,29.3,25.04,South,177,5.4,5.4,14,0.00,,---,0.00,VWS V14.01,2013-07-03 21:13:00,
2013-07-03 16:18:00,83.5,29.3,25.04,South,191,4.0,4.0,14,0.00,,---,0.00,VWS V14.01,2013-07-03 21:18:00,
2013-07-03 16:19:00,83.7,29.5,25.04,SW,214,5.8,5.8,14,0.00,,---,0.00,VWS V14.01,2013-07-03 21:19:00,
2013-07-03 16:23:00,83.7,29.5,25.04,South,183,8.7,8.7,14,0.00,,---,0.00,VWS V14.01,2013-07-03 21:23:00,
2013-07-03 16:29:00,84.0,29.8,25.04,SW,217,3.1,3.1,14,0.00,,---,0.00,VWS V14.01,2013-07-03 21:29:00,
2013-07-03 16:34:00,82.9,28.9,25.04,South,173,5.8,7.2,14,0.00,,---,0.00,VWS V14.01,2013-07-03 21:34:00,
2013-07-03 16:37:00,81.7,27.9,25.04,South,182,11.9,11.9,14,0.00,,---,0.00,VWS V14.01,2013-07-03 21:37:00,
2013-07-03 17:14:00,79.7,28.0,25.04,SW,230,4.0,5.8,15,0.00,,---,0.00,VWS V14.01,2013-07-03 22:14:00,
2013-07-03 17:15:00,79.7,28.0,25.04,SW,234,4.0,4.0,15,0.00,,---,0.00,VWS V14.01,2013-07-03 22:15:00,
2013-07-03 17:19:00,81.5,27.8,25.04,South,180,3.6,6.3,14,0.00,,---,0.00,VWS V14.01,2013-07-03 22:19:00,
2013-07-03 17:20:00,81.9,28.0,25.04,SSW,203,5.4,5.4,14,0.00,,---,0.00,VWS V14.01,2013-07-03 22:20:00,
2013-07-03 17:21:00,82.2,28.3,25.04,SSW,203,6.3,6.3,14,0.00,,---,0.00,VWS V14.01,2013-07-03 22:21:00,
2013-07-03 17:25:00,84.6,28.4,25.04,West,275,7.2,7.2,13,0.00,,---,0.00,VWS V14.01,2013-07-03 22:25:00,
2013-07-03 17:26:00,84.6,28.4,25.04,SW,234,8.7,8.7,13,0.00,,---,0.00,VWS V14.01,2013-07-03 22:26:00,
2013-07-03 17:27:00,85.5,29.1,25.04,SW,217,5.8,8.3,13,0.00,,---,0.00,VWS V14.01,2013-07-03 22:27:00,
2013-07-03 17:30:00,86.4,29.8,25.04,WSW,246,5.8,5.8,13,0.00,,---,0.00,VWS V14.01,2013-07-03 22:30:00,
2013-07-03 17:31:00,86.4,29.8,25.04,WSW,247,4.0,5.8,13,0.00,,---,0.00,VWS V14.01,2013-07-03 22:31:00,
2013-07-03 17:34:00,87.1,30.3,25.04,West,267,5.4,5.4,13,0.00,,---,0.00,VWS V14.01,2013-07-03 22:34:00,
2013-07-03 17:37:00,87.6,30.8,25.01,SW,225,4.9,4.9,13,0.00,,---,0.00,VWS V14.01,2013-07-03 22:37:00,
2013-07-03 17:38:00,87.1,30.3,25.01,SW,225,4.9,4.9,13,0.00,,---,0.00,VWS V14.01,2013-07-03 22:38:00,
2013-07-03 17:52:00,82.9,28.9,25.01,South,187,5.8,5.8,14,0.00,,---,0.00,VWS V14.01,2013-07-03 22:52:00,
2013-07-03 17:53:00,82.9,28.9,25.01,SSE,163,8.1,8.1,14,0.00,,---,0.00,VWS V14.01,2013-07-03 22:53:00,
2013-07-03 17:58:00,81.3,27.6,25.01,SSW,193,3.1,5.4,14,0.00,,---,0.00,VWS V14.01,2013-07-03 22:58:00,
2013-07-03 18:03:00,80.8,27.2,25.01,SSW,202,5.8,5.8,14,0.00,,---,0.00,VWS V14.01,2013-07-03 23:03:00,
2013-07-03 18:04:00,80.8,27.2,25.01,SSW,202,5.8,5.8,14,0.00,,---,0.00,VWS V14.01,2013-07-03 23:04:00,
2013-07-03 18:06:00,81.3,27.6,25.01,SSW,195,7.2,8.7,14,0.00,,---,0.00,VWS V14.01,2013-07-03 23:06:00,
2013-07-03 18:08:00,81.3,27.6,25.01,SSW,201,6.3,6.3,14,0.00,,---,0.00,VWS V14.01,2013-07-03 23:08:00,
2013-07-03 18:09:00,81.5,27.8,25.01,SW,229,8.3,8.3,14,0.00,,---,0.00,VWS V14.01,2013-07-03 23:09:00,
2013-07-03 18:10:00,81.5,27.8,25.01,SW,217,6.3,8.3,14,0.00,,---,0.00,VWS V14.01,2013-07-03 23:10:00,
2013-07-03 18:12:00,81.9,28.0,25.01,South,171,7.6,7.6,14,0.00,,---,0.00,VWS V14.01,2013-07-03 23:12:00,
2013-07-03 18:13:00,81.9,28.0,25.01,SW,218,6.3,7.6,14,0.00,,---,0.00,VWS V14.01,2013-07-03 23:13:00,
2013-07-03 18:14:00,82.0,28.2,25.01,SSW,201,4.9,5.8,14,0.00,,---,0.00,VWS V14.01,2013-07-03 23:14:00,
2013-07-03 18:15:00,82.4,28.5,25.01,SW,216,3.6,4.9,14,0.00,,---,0.00,VWS V14.01,2013-07-03 23:15:00,
2013-07-03 18:17:00,82.8,28.8,25.01,SW,214,7.6,7.6,14,0.00,,---,0.00,VWS V14.01,2013-07-03 23:17:00,
2013-07-03 18:18:00,82.8,28.8,25.01,SSW,200,7.6,7.6,14,0.00,,---,0.00,VWS V14.01,2013-07-03 23:18:00,
2013-07-03 18:20:00,82.4,28.5,25.01,WSW,244,8.3,8.3,14,0.00,,---,0.00,VWS V14.01,2013-07-03 23:20:00,
2013-07-03 18:23:00,82.4,28.5,25.01,South,180,8.1,8.1,14,0.00,,---,0.00,VWS V14.01,2013-07-03 23:23:00,
2013-07-03 18:24:00,81.9,28.0,25.01,SSE,165,5.4,8.1,14,0.00,,---,0.00,VWS V14.01,2013-07-03 23:24:00,
2013-07-03 18:25:00,81.9,28.0,25.01,South,186,5.4,5.4,14,0.00,,---,0.00,VWS V14.01,2013-07-03 23:25:00,
2013-07-03 18:28:00,81.5,27.8,25.01,SSW,205,8.3,8.3,14,0.00,,---,0.00,VWS V14.01,2013-07-03 23:28:00,
2013-07-03 18:29:00,82.0,28.2,25.01,SW,219,8.1,11.0,14,0.00,,---,0.00,VWS V14.01,2013-07-03 23:29:00,
2013-07-03 18:31:00,82.0,28.2,25.01,SSW,199,8.1,8.7,14,0.00,,---,0.00,VWS V14.01,2013-07-03 23:31:00,
2013-07-03 18:34:00,82.0,28.2,25.01,South,187,5.8,8.3,14,0.00,,---,0.00,VWS V14.01,2013-07-03 23:34:00,
2013-07-03 18:38:00,82.2,28.3,25.01,SSW,206,4.0,4.0,14,0.00,,---,0.00,VWS V14.01,2013-07-03 23:38:00,
2013-07-03 18:39:00,82.2,28.3,25.01,SSW,192,4.9,4.9,14,0.00,,---,0.00,VWS V14.01,2013-07-03 23:39:00,
2013-07-03 18:40:00,82.2,28.3,25.01,SW,216,8.1,8.1,14,0.00,,---,0.00,VWS V14.01,2013-07-03 23:40:00,
2013-07-03 18:43:00,82.8,28.8,25.01,SW,225,5.4,7.6,14,0.00,,---,0.00,VWS V14.01,2013-07-03 23:43:00,
2013-07-03 18:44:00,82.6,28.6,25.01,SW,223,6.3,6.3,14,0.00,,---,0.00,VWS V14.01,2013-07-03 23:44:00,
2013-07-03 18:45:00,82.6,28.6,25.01,SW,223,6.3,6.3,14,0.00,,---,0.00,VWS V14.01,2013-07-03 23:45:00,
2013-07-03 18:48:00,82.4,28.5,25.01,SSW,205,6.3,6.3,14,0.00,,---,0.00,VWS V14.01,2013-07-03 23:48:00,
2013-07-03 18:50:00,82.6,28.6,25.01,SSW,205,6.3,6.3,14,0.00,,---,0.00,VWS V14.01,2013-07-03 23:50:00,
2013-07-03 18:51:00,82.6,28.6,25.01,SW,219,7.2,7.6,14,0.00,,---,0.00,VWS V14.01,2013-07-03 23:51:00,
2013-07-03 18:54:00,82.6,28.6,25.01,South,190,6.3,6.3,14,0.00,,---,0.00,VWS V14.01,2013-07-03 23:54:00,
2013-07-03 18:55:00,82.6,28.6,25.01,SSW,196,6.7,10.5,14,0.00,,---,0.00,VWS V14.01,2013-07-03 23:55:00,
2013-07-03 18:56:00,82.6,28.6,25.01,South,182,5.4,6.7,14,0.00,,---,0.00,VWS V14.01,2013-07-03 23:56:00,
2013-07-03 18:59:00,82.8,28.8,25.01,WSW,245,6.3,8.1,14,0.00,,---,0.00,VWS V14.01,2013-07-03 23:59:00,
2013-07-03 19:00:00,82.8,28.8,25.01,WSW,245,4.0,4.0,14,0.00,,---,0.00,VWS V14.01,2013-07-04 00:00:00,
2013-07-03 19:03:00,83.1,29.0,25.01,SSW,199,3.6,3.6,14,0.00,,---,0.00,VWS V14.01,2013-07-04 00:03:00,
2013-07-03 19:35:00,80.4,28.6,25.01,South,191,5.4,5.4,15,0.00,,---,0.00,VWS V14.01,2013-07-04 00:35:00,
2013-07-03 19:36:00,80.4,28.6,25.01,South,187,5.4,5.4,15,0.00,,---,0.00,VWS V14.01,2013-07-04 00:36:00,
2013-07-03 21:04:00,73.9,25.0,25.01,SW,221,6.3,6.3,16,0.00,,---,0.00,VWS V14.01,2013-07-04 02:04:00,
2013-07-03 21:12:00,73.4,24.5,25.01,SSW,206,3.6,5.8,16,0.00,,---,0.00,VWS V14.01,2013-07-04 02:12:00,
2013-07-03 21:13:00,73.4,24.5,25.01,South,178,7.6,7.6,16,0.00,,---,0.00,VWS V14.01,2013-07-04 02:13:00,
2013-07-03 21:18:00,73.0,24.2,25.01,SW,223,4.9,4.9,16,0.00,,---,0.00,VWS V14.01,2013-07-04 02:18:00,
2013-07-03 21:19:00,72.9,24.1,25.01,South,178,6.3,6.3,16,0.00,,---,0.00,VWS V14.01,2013-07-04 02:19:00,
2013-07-03 21:21:00,72.7,23.9,25.01,SW,222,6.3,9.6,16,0.00,,---,0.00,VWS V14.01,2013-07-04 02:21:00,
2013-07-03 21:23:00,72.7,23.9,25.01,SW,214,4.9,5.4,16,0.00,,---,0.00,VWS V14.01,2013-07-04 02:23:00,
2013-07-03 21:24:00,72.7,23.9,25.01,SW,231,5.4,5.4,16,0.00,,---,0.00,VWS V14.01,2013-07-04 02:24:00,
2013-07-03 21:25:00,72.7,23.9,25.01,SSW,193,6.3,7.6,16,0.00,,---,0.00,VWS V14.01,2013-07-04 02:25:00,
2013-07-03 21:26:00,72.5,23.8,25.01,SSW,199,6.3,8.1,16,0.00,,---,0.00,VWS V14.01,2013-07-04 02:26:00,
2013-07-03 21:29:00,72.5,23.8,25.01,SSW,210,6.3,6.3,16,0.00,,---,0.00,VWS V14.01,2013-07-04 02:29:00,
2013-07-03 21:30:00,72.5,23.8,25.01,SW,215,7.2,8.1,16,0.00,,---,0.00,VWS V14.01,2013-07-04 02:30:00,
2013-07-03 21:31:00,72.5,23.8,25.01,SSW,205,7.2,7.6,16,0.00,,---,0.00,VWS V14.01,2013-07-04 02:31:00,
2013-07-03 21:32:00,72.3,23.6,25.01,SSW,204,6.3,7.6,16,0.00,,---,0.00,VWS V14.01,2013-07-04 02:32:00,
2013-07-03 21:34:00,72.3,23.6,25.01,SSW,207,6.3,6.3,16,0.00,,---,0.00,VWS V14.01,2013-07-04 02:34:00,
2013-07-03 21:35:00,72.1,23.5,25.01,SW,214,5.8,5.8,16,0.00,,---,0.00,VWS V14.01,2013-07-04 02:35:00,
2013-07-03 21:36:00,72.1,23.5,25.01,SSW,205,6.3,6.3,16,0.00,,---,0.00,VWS V14.01,2013-07-04 02:36:00,
2013-07-03 21:38:00,72.1,23.5,25.01,SSW,207,5.8,8.1,16,0.00,,---,0.00,VWS V14.01,2013-07-04 02:38:00,
2013-07-03 21:39:00,72.0,23.4,25.01,SW,214,6.7,6.7,16,0.00,,---,0.00,VWS V14.01,2013-07-04 02:39:00,
2013-07-03 21:41:00,72.0,23.4,25.01,SW,214,8.3,8.3,16,0.00,,---,0.00,VWS V14.01,2013-07-04 02:41:00,
2013-07-03 21:43:00,71.8,23.2,25.01,SSW,207,4.9,4.9,16,0.00,,---,0.00,VWS V14.01,2013-07-04 02:43:00,
2013-07-03 21:44:00,71.8,23.2,25.01,SSW,202,6.3,6.3,16,0.00,,---,0.00,VWS V14.01,2013-07-04 02:44:00,
2013-07-03 21:46:00,71.6,23.1,25.01,SSW,192,3.6,5.8,16,0.00,,---,0.00,VWS V14.01,2013-07-04 02:46:00,
2013-07-03 21:47:00,71.6,23.1,25.01,SSW,200,4.0,4.0,16,0.00,,---,0.00,VWS V14.01,2013-07-04 02:47:00,
2013-07-03 21:48:00,71.6,23.1,25.01,SSW,208,4.0,5.4,16,0.00,,---,0.00,VWS V14.01,2013-07-04 02:48:00,
2013-07-03 21:50:00,71.6,23.1,25.01,SW,216,3.6,5.8,16,0.00,,---,0.00,VWS V14.01,2013-07-04 02:50:00,
2013-07-03 21:52:00,71.4,24.4,25.01,SSW,213,5.8,5.8,17,0.00,,---,0.00,VWS V14.01,2013-07-04 02:52:00,
2013-07-03 21:53:00,71.2,24.2,25.01,SW,218,5.4,5.8,17,0.00,,---,0.00,VWS V14.01,2013-07-04 02:53:00,
2013-07-03 21:54:00,71.2,24.2,25.01,SSW,199,3.6,5.4,17,0.00,,---,0.00,VWS V14.01,2013-07-04 02:54:00,
2013-07-03 21:55:00,71.2,24.2,25.01,SW,220,5.4,5.4,17,0.00,,---,0.00,VWS V14.01,2013-07-04 02:55:00,
2013-07-03 21:58:00,71.2,24.2,25.01,SSW,195,5.4,5.4,17,0.00,,---,0.00,VWS V14.01,2013-07-04 02:58:00,
2013-07-03 22:00:00,71.2,24.2,25.01,SW,218,4.9,5.4,17,0.00,,---,0.00,VWS V14.01,2013-07-04 03:00:00,
2013-07-03 22:03:00,71.1,24.1,25.01,SSW,207,4.0,4.0,17,0.00,,---,0.00,VWS V14.01,2013-07-04 03:03:00,
2013-07-03 22:06:00,70.9,23.9,25.04,SSW,211,2.7,4.9,17,0.00,,---,0.00,VWS V14.01,2013-07-04 03:06:00,
2013-07-03 22:08:00,70.7,23.8,25.04,SW,227,4.0,5.8,17,0.00,,---,0.00,VWS V14.01,2013-07-04 03:08:00,
2013-07-03 22:11:00,70.7,23.8,25.04,West,266,6.3,6.3,17,0.00,,---,0.00,VWS V14.01,2013-07-04 03:11:00,
2013-07-03 22:13:00,70.5,23.6,25.04,SSW,211,4.0,5.4,17,0.00,,---,0.00,VWS V14.01,2013-07-04 03:13:00,
2013-07-03 22:17:00,70.5,23.6,25.04,SSW,193,4.9,4.9,17,0.00,,---,0.00,VWS V14.01,2013-07-04 03:17:00,
2013-07-03 22:18:00,70.5,23.6,25.04,SSW,204,4.0,5.8,17,0.00,,---,0.00,VWS V14.01,2013-07-04 03:18:00,
2013-07-03 22:19:00,70.2,23.4,25.04,SSW,204,4.0,4.0,17,0.00,,---,0.00,VWS V14.01,2013-07-04 03:19:00,
2013-07-03 22:23:00,70.2,23.4,25.04,SSW,205,5.8,5.8,17,0.00,,---,0.00,VWS V14.01,2013-07-04 03:23:00,
2013-07-03 22:24:00,70.2,23.4,25.04,SW,218,5.8,5.8,17,0.00,,---,0.00,VWS V14.01,2013-07-04 03:24:00,
2013-07-03 22:26:00,70.0,23.2,25.04,SW,228,4.9,4.9,17,0.00,,---,0.00,VWS V14.01,2013-07-04 03:26:00,
2013-07-03 22:28:00,69.8,23.1,25.04,SSW,207,4.9,6.3,17,0.00,,---,0.00,VWS V14.01,2013-07-04 03:28:00,
2013-07-03 22:29:00,69.8,23.1,25.04,SW,215,4.0,4.9,17,0.00,,---,0.00,VWS V14.01,2013-07-04 03:29:00,
2013-07-03 22:31:00,69.8,23.1,25.04,SW,224,3.1,5.4,17,0.00,,---,0.00,VWS V14.01,2013-07-04 03:31:00,
2013-07-03 22:34:00,69.8,23.1,25.04,SSW,209,7.2,7.2,17,0.00,,---,0.00,VWS V14.01,2013-07-04 03:34:00,
2013-07-03 22:36:00,69.6,22.9,25.04,SW,225,4.0,5.4,17,0.00,,---,0.00,VWS V14.01,2013-07-04 03:36:00,
2013-07-03 22:39:00,69.4,22.8,25.04,WSW,238,5.4,5.4,17,0.00,,---,0.00,VWS V14.01,2013-07-04 03:39:00,
2013-07-03 22:40:00,69.4,22.8,25.04,SW,225,5.8,5.8,17,0.00,,---,0.00,VWS V14.01,2013-07-04 03:40:00,
2013-07-03 22:43:00,69.4,22.8,25.04,SSW,196,3.6,4.9,17,0.00,,---,0.00,VWS V14.01,2013-07-04 03:43:00,
2013-07-03 22:44:00,69.4,22.8,25.04,SSW,211,4.0,5.8,17,0.00,,---,0.00,VWS V14.01,2013-07-04 03:44:00,
2013-07-03 22:45:00,69.4,22.8,25.04,SW,225,5.8,5.8,17,0.00,,---,0.00,VWS V14.01,2013-07-04 03:45:00,
2013-07-03 22:48:00,69.4,22.8,25.04,SW,216,6.3,6.3,17,0.00,,---,0.00,VWS V14.01,2013-07-04 03:48:00,
2013-07-03 22:50:00,69.3,22.6,25.04,SSW,204,6.3,6.3,17,0.00,,---,0.00,VWS V14.01,2013-07-04 03:50:00,
2013-07-03 22:51:00,69.3,22.6,25.04,SSW,199,8.1,8.1,17,0.00,,---,0.00,VWS V14.01,2013-07-04 03:51:00,
2013-07-03 22:55:00,69.3,22.6,25.04,SW,223,5.8,6.3,17,0.00,,---,0.00,VWS V14.01,2013-07-04 03:55:00,
2013-07-03 22:56:00,69.3,22.6,25.04,SW,223,4.0,5.4,17,0.00,,---,0.00,VWS V14.01,2013-07-04 03:56:00,
2013-07-03 23:00:00,69.3,22.6,25.04,SW,234,6.3,6.3,17,0.00,,---,0.00,VWS V14.01,2013-07-04 04:00:00,
2013-07-03 23:01:00,69.3,22.6,25.04,South,179,5.8,6.3,17,0.00,,---,0.00,VWS V14.01,2013-07-04 04:01:00,
2013-07-03 23:06:00,69.1,22.5,25.04,SSW,212,5.4,5.4,17,0.00,,---,0.00,VWS V14.01,2013-07-04 04:06:00,
2013-07-03 23:07:00,69.1,22.5,25.04,WSW,257,5.8,5.8,17,0.00,,---,0.00,VWS V14.01,2013-07-04 04:07:00,
2013-07-03 23:11:00,68.9,22.3,25.04,SSW,212,4.5,4.5,17,0.00,,---,0.00,VWS V14.01,2013-07-04 04:11:00,
2013-07-03 23:12:00,68.9,22.3,25.04,SW,221,6.3,6.3,17,0.00,,---,0.00,VWS V14.01,2013-07-04 04:12:00,
2013-07-03 23:13:00,68.9,22.3,25.04,SSW,210,4.0,6.3,17,0.00,,---,0.00,VWS V14.01,2013-07-04 04:13:00,
2013-07-03 23:17:00,68.7,22.2,25.04,South,184,3.1,5.8,17,0.00,,---,0.00,VWS V14.01,2013-07-04 04:17:00,
2013-07-03 23:18:00,68.7,22.2,25.04,SSW,207,4.0,5.4,17,0.00,,---,0.00,VWS V14.01,2013-07-04 04:18:00,
2013-07-03 23:22:00,68.5,22.0,25.04,SSW,202,2.7,2.7,17,0.00,,---,0.00,VWS V14.01,2013-07-04 04:22:00,
2013-07-03 23:23:00,68.5,22.0,25.04,SSW,202,0.0,2.2,17,0.00,,---,0.00,VWS V14.01,2013-07-04 04:23:00,
2013-07-03 23:24:00,68.5,22.0,25.04,SSW,202,0.0,0.0,17,0.00,,---,0.00,VWS V14.01,2013-07-04 04:24:00,
2013-07-03 23:27:00,67.8,21.5,25.04,SW,236,2.7,2.7,17,0.00,,---,0.00,VWS V14.01,2013-07-04 04:27:00,
2013-07-03 23:28:00,67.8,21.5,25.04,SW,236,2.7,2.7,17,0.00,,---,0.00,VWS V14.01,2013-07-04 04:28:00,
2013-07-03 23:29:00,67.8,21.5,25.04,SW,230,4.0,4.0,17,0.00,,---,0.00,VWS V14.01,2013-07-04 04:29:00,
2013-07-03 23:33:00,67.6,21.3,25.04,WSW,245,0.0,0.0,17,0.00,,---,0.00,VWS V14.01,2013-07-04 04:33:00,
2013-07-03 23:34:00,67.5,21.2,25.04,WSW,245,0.0,0.0,17,0.00,,---,0.00,VWS V14.01,2013-07-04 04:34:00,
2013-07-03 23:38:00,67.3,21.0,25.04,WSW,245,0.0,0.0,17,0.00,,---,0.00,VWS V14.01,2013-07-04 04:38:00,
2013-07-03 23:39:00,67.1,20.9,25.04,WSW,248,0.0,0.0,17,0.00,,---,0.00,VWS V14.01,2013-07-04 04:39:00,
2013-07-03 23:43:00,67.1,20.9,25.04,WSW,248,0.0,0.0,17,0.00,,---,0.00,VWS V14.01,2013-07-04 04:43:00,
2013-07-03 23:44:00,67.1,20.9,25.04,WSW,248,0.0,0.0,17,0.00,,---,0.00,VWS V14.01,2013-07-04 04:44:00,
2013-07-03 23:48:00,66.9,20.7,25.04,West,261,2.7,2.7,17,0.00,,---,0.00,VWS V14.01,2013-07-04 04:48:00,
2013-07-03 23:49:00,66.7,20.6,25.04,West,261,3.6,3.6,17,0.00,,---,0.00,VWS V14.01,2013-07-04 04:49:00,
2013-07-03 23:53:00,66.7,20.6,25.04,WSW,254,0.0,2.2,17,0.00,,---,0.00,VWS V14.01,2013-07-04 04:53:00,
2013-07-03 23:54:00,66.7,20.6,25.04,WSW,254,0.0,0.0,17,0.00,,---,0.00,VWS V14.01,2013-07-04 04:54:00,
2013-07-03 23:55:00,66.7,20.6,25.04,WSW,252,3.1,3.1,17,0.00,,---,0.00,VWS V14.01,2013-07-04 04:55:00,
2013-07-03 23:58:00,66.6,20.4,25.04,WSW,252,3.1,3.1,17,0.00,,---,0.00,VWS V14.01,2013-07-04 04:58:00,
2013-07-03 23:59:00,66.6,20.4,25.04,WSW,252,3.6,3.6,17,0.00,,---,0.00,VWS V14.01,2013-07-04 04:59:00,